Location: Unspecified
(0.0000°N, 0.0000°E)
Time: 11:19:20
(UTC+00:00)

Courier 1B - Pass Details

Date: 23 November 2019
Orbit: 963 x 1209 km, 28.3° (Epoch: 14 December)

Event Time Altitude Azimuth Distance (km) Brightness Sun altitude
Rises 12:05:51 0° 299° (WNW) 3,628 10.4 69.1°
Reaches altitude 10° 12:08:28 10° 299° (WNW) 2,682 9.9 69.0°
Maximum altitude 12:14:56 85° 211° (SSW) 976 9.5 68.5°
Drops below altitude 10° 12:21:36 10° 122° (ESE) 2,764 10.1 67.9°
Sets 12:24:21 0° 121° (ESE) 3,746 10.6 67.6°
